Weather History for PHKO - January, 2014

Change the Weather History Date:

Thursday, January 16, 2014

  Actual Average Record
Temperature  
Mean Temperature 76 °F -  
Max Temperature 81 °F 79 °F 89 °F (1984)
Min Temperature 71 °F 66 °F 60 °F (1992)
Cooling Degree Days 11    
Growing Degree Days 26 (Base 50)    
Moisture  
Dew Point 66 °F    
Average Humidity 73    
Maximum Humidity 84    
Minimum Humidity 58    
Precipitation  
Precipitation 0.06 in - - ()
Sea Level Pressure  
Sea Level Pressure 29.94 in    
Wind  
Wind Speed 5 mph (NNW)    
Max Wind Speed 12 mph    
Max Gust Speed -    
Visibility 10 miles    
Events Rain    
Averages and records for this station are not official NWS values.
T = Trace of Precipitation, MM = Missing Value Source: NWS Daily Summary

Daily Weather History Graph

Daily Weather History Graph

Search for Another Location

Airport or City:

Trip Planner

Search our weather history database for the weather conditions in past years. The results will help you decide how hot, cold, wet, or windy it might be!

Date:

Astronomy

Jan. 16, 2014 Rise Set
Actual Time 7:01 AM HST 6:06 PM HST
Civil Twilight 6:38 AM HST 6:30 PM HST
Nautical Twilight 6:11 AM HST 6:57 PM HST
Astronomical Twilight 5:44 AM HST 7:23 PM HST
Moon 6:54 PM HST (1/16) 7:13 AM HST (1/16)
Length of Visible Light 11h 52m
Length of Day
11h 05m
Full, 100% of the Moon is Illuminated
Jan 16
Full
Jan 23
Last Quarter
Jan 30
New
Feb 6
First Quarter
Feb 14
Full

Hourly Weather History & Observations

Time (HST) Temp. Heat Index Dew Point Humidity Pressure Visibility Wind Dir Wind Speed Gust Speed Precip Events Conditions
12:53 AM 71.1 °F - 61.0 °F 70% 29.92 in 10.0 mi East 3.5 mph - N/A   Clear
1:53 AM 72.0 °F - 62.1 °F 71% 29.93 in 10.0 mi Calm Calm - N/A   Mostly Cloudy
2:53 AM 73.0 °F - 64.9 °F 76% 29.92 in 10.0 mi ESE 5.8 mph - N/A   Overcast
3:53 AM 73.9 °F - 64.9 °F 73% 29.92 in 10.0 mi ESE 3.5 mph - N/A   Overcast
4:28 AM 73.4 °F - 66.2 °F 78% 29.92 in 9.0 mi WNW 11.5 mph - 0.00 in Rain Light Rain
4:53 AM 73.0 °F - 68.0 °F 84% 29.93 in 10.0 mi WNW 11.5 mph - 0.05 in Rain Light Rain
5:14 AM 73.4 °F - 68.0 °F 83% 29.93 in 10.0 mi West 10.4 mph - 0.00 in   Overcast
5:53 AM 73.9 °F - 68.0 °F 82% 29.95 in 10.0 mi WNW 4.6 mph - 0.00 in   Overcast
6:53 AM 73.0 °F - 68.0 °F 84% 29.96 in 10.0 mi ENE 4.6 mph - 0.00 in   Overcast
7:53 AM 73.0 °F - 68.0 °F 84% 29.98 in 10.0 mi Calm Calm - N/A   Overcast
8:53 AM 73.9 °F - 66.9 °F 79% 29.99 in 10.0 mi ESE 5.8 mph - 0.01 in   Overcast
9:53 AM 78.1 °F - 63.0 °F 60% 29.99 in 10.0 mi SE 4.6 mph - N/A   Mostly Cloudy
10:53 AM 80.1 °F 81.7 °F 64.0 °F 58% 29.98 in 10.0 mi Variable 3.5 mph - N/A   Clear
11:53 AM 80.1 °F 81.7 °F 64.0 °F 58% 29.95 in 10.0 mi West 5.8 mph - N/A   Clear
12:53 PM 81.0 °F 82.7 °F 64.9 °F 58% 29.92 in 10.0 mi West 8.1 mph - N/A   Clear
1:53 PM 81.0 °F 83.3 °F 66.9 °F 62% 29.90 in 10.0 mi West 8.1 mph - N/A   Clear
2:53 PM 81.0 °F 83.3 °F 66.9 °F 62% 29.89 in 10.0 mi West 8.1 mph - N/A   Clear
3:53 PM 80.1 °F 82.7 °F 68.0 °F 67% 29.90 in 10.0 mi West 9.2 mph - N/A   Clear
4:53 PM 80.1 °F 82.7 °F 68.0 °F 67% 29.91 in 10.0 mi NW 6.9 mph - N/A   Clear
5:53 PM 79.0 °F - 68.0 °F 69% 29.92 in 10.0 mi NNW 6.9 mph - N/A   Clear
6:53 PM 77.0 °F - 68.0 °F 74% 29.95 in 10.0 mi NNW 5.8 mph - N/A   Scattered Clouds
7:53 PM 75.9 °F - 68.0 °F 76% 29.96 in 10.0 mi NNW 4.6 mph - N/A   Clear
8:53 PM 75.0 °F - 68.0 °F 79% 29.98 in 10.0 mi NNE 3.5 mph - N/A   Clear
9:53 PM 73.9 °F - 66.9 °F 79% 29.98 in 10.0 mi NNE 8.1 mph - N/A   Clear
10:53 PM 73.9 °F - 66.9 °F 79% 29.98 in 10.0 mi NNE 9.2 mph - N/A   Clear
11:53 PM 73.9 °F - 66.0 °F 76% 29.97 in 10.0 mi NNE 8.1 mph - N/A   Clear